Tracking 35274 objects as of 10-Sep-2026
HD Live streaming from Space Station
objects crossing your sky now

ATLAS 3B CENTAUR R/B


ATLAS 3B CENTAUR R/B is no longer on orbit


NORAD ID: 27379
Int'l Code: 2002-006B
Launch date: February 21, 2002
Source: United States (US)
Launch site: AIR FORCE EASTERN TEST RANGE (AFETR)
Decay date: 2002-09-24

Note: This is a ROCKET BODY
Your satellite tracking list
Your tracking list is empty




NASA's NSSDC Master Catalog

Two Line Element Set (TLE):
1 27379U 02006B   02267.66922162 +.16378685 -46621-4 +10000-3 0  9999
2 27379 022.6029 113.8717 1065038 262.1483 135.2774 14.14178019003006
Source of the keplerian elements: AFSPC